Flag for Canada Weather past 2 weeks in Annapolis County, Nova Scotia, Canada

Now
67 °F

Mild.


Feels Like: 67 °F
Forecast: 61 / 65 °F
Wind: 3 mph from Southeast

Location: Kejimkujik 1

Current Time: Jul 24, 2014 at 12:52:07 PM

Latest Report: Jul 24, 2014 at 12:00 PM


Visibility: N/A

Pressure: 29.78 "Hg

Humidity: 90%

Dew point: 64 °F

Location of Annapolis CountyLocation

Historic Weather in Annapolis County — Graph

°F

Annapolis County temperature yesterday

Maximum temperature yesterday: 84 °F (at 3:00 PM)
Minimum temperature yesterday: 58 °F (at 6:00 AM)
Average temperature yesterday: 71 °F

Past Weeks' High & Low Weather Summary

 TemperatureHumidityPressure
High84 °F (Jul 10, 4:00 PM)100% (Jul 16, 11:00 PM)29.90 "Hg (Jul 16, 11:00 PM)
Low51 °F (Jul 12, 6:00 AM)31% (Jul 12, 2:00 PM)29.06 "Hg (Jul 9, 11:00 AM)
Average68 °F77%29.39 "Hg
* Reported Jul 9 11:00 AM — Jul 24 11:00 AM, Annapolis County, Weather by CustomWeather, © 2014

Note: Actual official high and low records may vary slightly from our data, if they occured in-between our weather recording intervals... More about our weather records

Advertising

Annapolis County weather history for previous 24 hours

 ConditionsComfort  
Time TempWeatherWind HumidityBarometerVisibility
11:00 AM
Jul 24
67 °FMild.2 mph91%29.79 "HgN/A
10:00 AM68 °FMild.5 mph91%29.79 "HgN/A
9:00 AM68 °FMild.6 mph91%29.79 "HgN/A
8:00 AM66 °FMild.3 mph93%29.78 "HgN/A
7:00 AM65 °FMild.5 mph93%29.79 "HgN/A
6:00 AM64 °FMild.5 mph98%29.78 "HgN/A
5:00 AM65 °FMild.5 mph90%29.77 "HgN/A
4:00 AM65 °FMild.5 mph90%29.78 "HgN/A
3:00 AM64 °FMild.7 mph96%29.78 "HgN/A
2:00 AM65 °FMild.9 mph84%29.79 "HgN/A
1:00 AM65 °FMild.7 mph90%29.81 "HgN/A
12:00 AM67 °FMild.6 mph86%29.81 "HgN/A
11:00 PM
Jul 23
68 °FMild.6 mph82%29.83 "HgN/A
10:00 PM70 °FMild.7 mph80%29.84 "HgN/A
9:00 PM72 °FMild.8 mph78%29.83 "HgN/A
8:00 PM75 °FMild.8 mph68%29.82 "HgN/A
7:00 PM79 °FWarm.8 mph67%29.81 "HgN/A
6:00 PM80 °FWarm.13 mph65%29.80 "HgN/A
5:00 PM82 °FWarm.10 mph62%29.80 "HgN/A
4:00 PM84 °FWarm.10 mph59%29.82 "HgN/A
3:00 PM84 °FWarm.10 mph57%29.83 "HgN/A
2:00 PM84 °FWarm.12 mph57%29.84 "HgN/A
1:00 PM80 °FWarm.8 mph66%29.87 "HgN/A
12:00 PM76 °FMild.9 mph73%29.88 "HgN/A
Weather by CustomWeather, © 2014

See weather overviewHow to use our weather pages